Weather History for Brunswick, GA

Change the Weather History Date:

Wednesday, May 2, 2012

  Actual Average Record
Temperature  
Mean Temperature 71 °F -  
Max Temperature 82 °F 82 °F 93 °F (1953)
Min Temperature 60 °F 61 °F 42 °F (2006)
Cooling Degree Days 6    
Growing Degree Days 21 (Base 50)    
Moisture  
Dew Point 66 °F    
Average Humidity 75    
Maximum Humidity 100    
Minimum Humidity 54    
Precipitation  
Precipitation 0.00 in - - ()
Sea Level Pressure  
Sea Level Pressure 30.14 in    
Wind  
Wind Speed 5 mph (SE)    
Max Wind Speed 14 mph    
Max Gust Speed 18 mph    
Visibility 9 miles    
Events      
Averages and records for this station are not official NWS values.
T = Trace of Precipitation, MM = Missing Value Source: NWS Daily Summary

Daily Weather History Graph

Daily Weather History Graph

Search for Another Location

Airport:

Trip Planner

Search our weather history database for the weather conditions in past years. The results will help you decide how hot, cold, wet, or windy it might be!

Date:

Astronomy

May. 02, 2012 Rise Set
Actual Time 6:39 AM EDT 8:06 PM EDT
Civil Twilight 6:13 AM EDT 8:32 PM EDT
Nautical Twilight 5:43 AM EDT 9:03 PM EDT
Astronomical Twilight 5:10 AM EDT 9:35 PM EDT
Moon 4:29 PM EDT (5/2) 3:53 AM EDT (5/2)
Length of Visible Light 14h 18m
Length of Day
13h 26m
Waxing Gibbous, 83% of the Moon is Illuminated
May 2
Waxing Gibbous
May 5
Full
May 12
Last Quarter
May 20
New
May 28
First Quarter

Hourly Weather History & Observations

Time (EDT) Temp. Heat Index Dew Point Humidity Pressure Visibility Wind Dir Wind Speed Gust Speed Precip Events Conditions
12:15 AM 73.4 °F - 68.0 °F 83% 30.14 in 10.0 mi SE 4.6 mph - N/A   Scattered Clouds
12:35 AM 73.4 °F - 68.0 °F 83% 30.14 in 10.0 mi SE 5.8 mph - N/A   Scattered Clouds
12:55 AM 73.4 °F - 68.0 °F 83% 30.13 in 10.0 mi SE 4.6 mph - N/A   Clear
1:15 AM 73.4 °F - 68.0 °F 83% 30.13 in 10.0 mi SE 4.6 mph - N/A   Clear
1:35 AM 73.4 °F - 68.0 °F 83% 30.12 in 10.0 mi SE 4.6 mph - N/A   Clear
1:55 AM 73.4 °F - 68.0 °F 83% 30.12 in 10.0 mi SE 5.8 mph - N/A   Clear
2:15 AM 71.6 °F - 66.2 °F 83% 30.11 in 10.0 mi SSE 5.8 mph - N/A   Clear
2:35 AM 71.6 °F - 66.2 °F 83% 30.11 in 10.0 mi SSE 4.6 mph - N/A   Clear
2:55 AM 71.6 °F - 66.2 °F 83% 30.11 in 10.0 mi Calm Calm - N/A   Clear
3:15 AM 71.6 °F - 66.2 °F 83% 30.11 in 10.0 mi Calm Calm - N/A   Clear
3:35 AM 69.8 °F - 64.4 °F 83% 30.11 in 10.0 mi Calm Calm - N/A   Clear
3:55 AM 66.2 °F - 62.6 °F 88% 30.11 in 10.0 mi Calm Calm - N/A   Clear
4:15 AM 64.4 °F - 64.4 °F 100% 30.11 in 2.0 mi Calm Calm - N/A   Clear
4:35 AM 64.4 °F - 62.6 °F 94% 30.11 in 2.5 mi Calm Calm - N/A   Clear
4:55 AM 64.4 °F - 62.6 °F 94% 30.10 in 1.0 mi Calm Calm - N/A   Unknown
5:15 AM 64.4 °F - 62.6 °F 94% 30.10 in 0.5 mi Calm Calm - N/A   Unknown
5:35 AM 62.6 °F - 60.8 °F 94% 30.10 in 0.5 mi Calm Calm - N/A   Unknown
5:55 AM 64.4 °F - 62.6 °F 94% 30.11 in 0.5 mi Calm Calm - N/A   Unknown
6:15 AM 62.6 °F - 60.8 °F 94% 30.11 in 0.5 mi Calm Calm - N/A   Unknown
6:35 AM 60.8 °F - 60.8 °F 100% 30.12 in 0.8 mi Calm Calm - N/A   Unknown
6:55 AM 62.6 °F - 60.8 °F 94% 30.13 in 1.2 mi Calm Calm - N/A   Unknown
7:15 AM 62.6 °F - 60.8 °F 94% 30.13 in 7.0 mi Calm Calm - N/A   Clear
7:35 AM 62.6 °F - 62.6 °F 100% 30.14 in 10.0 mi Calm Calm - N/A   Clear
7:55 AM 66.2 °F - 64.4 °F 94% 30.14 in 10.0 mi Calm Calm - N/A   Clear
8:15 AM 69.8 °F - 68.0 °F 94% 30.16 in 10.0 mi Calm Calm - N/A   Clear
8:35 AM 73.4 °F - 69.8 °F 88% 30.16 in 10.0 mi Calm Calm - N/A   Clear
8:55 AM 77.0 °F - 68.0 °F 74% 30.16 in 10.0 mi SSE 10.4 mph - N/A   Mostly Cloudy
9:15 AM 78.8 °F - 68.0 °F 69% 30.16 in 10.0 mi SSE 8.1 mph - N/A   Mostly Cloudy
9:35 AM 78.8 °F - 66.2 °F 65% 30.16 in 10.0 mi SSE 6.9 mph - N/A   Mostly Cloudy
9:55 AM 80.6 °F 82.7 °F 66.2 °F 61% 30.16 in 10.0 mi SSE 10.4 mph - N/A   Mostly Cloudy
10:15 AM 80.6 °F 82.7 °F 66.2 °F 61% 30.16 in 10.0 mi SE 10.4 mph - N/A   Mostly Cloudy
10:35 AM 80.6 °F 82.7 °F 66.2 °F 61% 30.17 in 10.0 mi SSE 9.2 mph - N/A   Mostly Cloudy
10:55 AM 80.6 °F 82.3 °F 64.4 °F 58% 30.17 in 10.0 mi South 5.8 mph - N/A   Scattered Clouds
11:15 AM 80.6 °F 82.3 °F 64.4 °F 58% 30.17 in 10.0 mi ESE 9.2 mph - N/A   Scattered Clouds
11:35 AM 80.6 °F 82.3 °F 64.4 °F 58% 30.17 in 10.0 mi SE 10.4 mph - N/A   Mostly Cloudy
11:55 AM 82.4 °F 83.9 °F 64.4 °F 54% 30.17 in 10.0 mi SE 9.2 mph - N/A   Mostly Cloudy
12:15 PM 80.6 °F 81.8 °F 62.6 °F 54% 30.17 in 10.0 mi SSE 9.2 mph - N/A   Scattered Clouds
12:35 PM 82.4 °F 83.9 °F 64.4 °F 54% 30.16 in 10.0 mi SE 10.4 mph - N/A   Scattered Clouds
12:55 PM 82.4 °F 83.9 °F 64.4 °F 54% 30.16 in 10.0 mi SE 8.1 mph - N/A   Mostly Cloudy
1:15 PM 82.4 °F 83.9 °F 64.4 °F 54% 30.16 in 10.0 mi SE 9.2 mph 16.1 mph N/A   Scattered Clouds
1:35 PM 80.6 °F 82.3 °F 64.4 °F 58% 30.16 in 10.0 mi ESE 12.7 mph 16.1 mph N/A   Mostly Cloudy
1:55 PM 82.4 °F 83.9 °F 64.4 °F 54% 30.16 in 10.0 mi SE 9.2 mph 18.4 mph N/A   Mostly Cloudy
2:15 PM 80.6 °F 82.3 °F 64.4 °F 58% 30.15 in 10.0 mi SE 11.5 mph - N/A   Mostly Cloudy
2:35 PM 82.4 °F 83.9 °F 64.4 °F 54% 30.15 in 10.0 mi SSE 11.5 mph 18.4 mph N/A   Scattered Clouds
2:55 PM 82.4 °F 83.9 °F 64.4 °F 54% 30.15 in 10.0 mi SE 9.2 mph 16.1 mph N/A   Scattered Clouds
3:15 PM 80.6 °F 82.3 °F 64.4 °F 58% 30.14 in 10.0 mi ESE 9.2 mph 16.1 mph N/A   Mostly Cloudy
3:35 PM 82.4 °F 83.9 °F 64.4 °F 54% 30.14 in 10.0 mi SSE 6.9 mph - N/A   Scattered Clouds
3:55 PM 80.6 °F 82.3 °F 64.4 °F 58% 30.14 in 10.0 mi SE 8.1 mph 16.1 mph N/A   Scattered Clouds
4:15 PM 80.6 °F 82.3 °F 64.4 °F 58% 30.13 in 10.0 mi SE 11.5 mph - N/A   Clear
4:35 PM 82.4 °F 83.9 °F 64.4 °F 54% 30.12 in 10.0 mi SE 11.5 mph 17.3 mph N/A   Scattered Clouds
4:55 PM 80.6 °F 82.3 °F 64.4 °F 58% 30.12 in 10.0 mi SE 13.8 mph - N/A   Scattered Clouds
5:15 PM 80.6 °F 82.7 °F 66.2 °F 61% 30.12 in 10.0 mi SE 12.7 mph - N/A   Scattered Clouds
5:35 PM 80.6 °F 82.7 °F 66.2 °F 61% 30.12 in 10.0 mi SE 10.4 mph - N/A   Scattered Clouds
5:55 PM 80.6 °F 83.2 °F 68.0 °F 65% 30.12 in 10.0 mi ESE 12.7 mph - N/A   Scattered Clouds
6:15 PM 78.8 °F - 68.0 °F 69% 30.11 in 10.0 mi SE 10.4 mph 17.3 mph N/A   Clear
6:35 PM 78.8 °F - 68.0 °F 69% 30.12 in 10.0 mi SE 11.5 mph 17.3 mph N/A   Clear
6:55 PM 78.8 °F - 68.0 °F 69% 30.11 in 10.0 mi ESE 10.4 mph - N/A   Scattered Clouds
7:15 PM 78.8 °F - 68.0 °F 69% 30.11 in 10.0 mi SE 10.4 mph - N/A   Clear
7:35 PM 77.0 °F - 68.0 °F 74% 30.11 in 10.0 mi SE 9.2 mph - N/A   Clear
7:55 PM 77.0 °F - 68.0 °F 74% 30.12 in 10.0 mi ESE 9.2 mph - N/A   Scattered Clouds
8:15 PM 75.2 °F - 68.0 °F 78% 30.13 in 10.0 mi ESE 6.9 mph - N/A   Scattered Clouds
8:35 PM 75.2 °F - 68.0 °F 78% 30.13 in 10.0 mi ESE 8.1 mph - N/A   Clear
8:55 PM 75.2 °F - 68.0 °F 78% 30.13 in 10.0 mi ESE 5.8 mph - N/A   Scattered Clouds
9:15 PM 73.4 °F - 68.0 °F 83% 30.14 in 10.0 mi SE 6.9 mph - N/A   Scattered Clouds
9:35 PM 73.4 °F - 69.8 °F 88% 30.15 in 10.0 mi SE 5.8 mph - N/A   Scattered Clouds
9:55 PM 73.4 °F - 69.8 °F 88% 30.14 in 10.0 mi ESE 6.9 mph - N/A   Clear
10:15 PM 73.4 °F - 69.8 °F 88% 30.15 in 10.0 mi SE 5.8 mph - N/A   Clear
10:35 PM 73.4 °F - 68.0 °F 83% 30.15 in 10.0 mi SE 6.9 mph - N/A   Clear
10:55 PM 73.4 °F - 68.0 °F 83% 30.15 in 10.0 mi SE 5.8 mph - N/A   Scattered Clouds
11:15 PM 73.4 °F - 69.8 °F 88% 30.15 in 10.0 mi SE 5.8 mph - N/A   Scattered Clouds
11:35 PM 73.4 °F - 68.0 °F 83% 30.15 in 10.0 mi SE 6.9 mph - N/A   Scattered Clouds
11:55 PM 73.4 °F - 68.0 °F 83% 30.15 in 10.0 mi SE 4.6 mph - N/A   Mostly Cloudy